Location: ??????
(56.0120°N, 39.1740°E)
Time: 06:52:53
(UTC+00:00)

Cosmos 1315 Rocket - Pass Details

Date: 14 April 2026
Orbit: 490 x 510 km, 81.2° (Epoch: 13 May)

Event Time Altitude Azimuth Distance (km) Brightness Sun altitude
Exits shadow 19:41:11 45° 75° (ENE) 702 3.2 -21.0°
Drops below altitude 10° 19:44:24 10° 24° (NNE) 1,725 5.9 -21.2°
Sets 19:46:34 0° 19° (NNE) 2,611 7.0 -21.3°
